Retour au catalogue

FENGYUN 1C DEB

ActifSSO
NORAD 30903·DEBRIS·🇨🇳 China

Lancé May 10, 1999 depuis Taiyuan Satellite Launch Center

Loading…

Prochains Passages (prochaines 24 heures)

TLE

VieillissantSource: Space-Track

Époque: Sep 6, 2026, 22:37 UTC

1 30903U 99025AYR 26249.94267594  .00000151  00000-0  13378-3 0  9991
2 30903  99.3382 145.5434 0096990  83.1876 278.0310 13.97713615724516

Suivez FENGYUN 1C DEB en temps réel avec AllMySat

Download on the App Store